Temperature
21 19 18 19 19 20 20 20 19 20 21 20 19 19 19 19 19 18 18 19 19 19 19 19 19 18 18 18 18 18 17 17 17 17 16 16 16 16 15 15 15 15 15 15
19 19 20 21 21 21 21 20 19 20 20 20 18 18 18 18 18 19 18 18 18 18 19 19 18 18 18 18 18 17 17 17 17 17 16 16 16 16 15 15 15 15 15 15
19 20 21 21 21 21 20 20 20 20 20 20 19 18 18 18 19 19 18 18 18 18 18 18 18 18 18 18 17 17 17 17 17 16 16 16 15 15 15 15 15 15 15 15
20 21 22 21 21 21 20 21 21 20 19 18 19 17 17 17 17 18 18 18 18 18 18 18 18 18 18 17 17 17 17 17 17 16 16 16 16 15 15 15 15 15 15 15
20 21 21 21 21 21 21 21 21 20 19 18 18 17 17 17 17 17 17 18 18 18 18 18 18 18 18 17 17 17 17 17 16 16 16 16 16 15 15 15 15 15 14 14
20 21 21 21 22 22 21 20 19 17 17 17 18 17 16 16 17 17 17 18 18 18 18 18 18 18 17 17 17 17 17 16 16 16 16 16 15 15 15 15 15 14 14 14
19 20 21 22 21 21 20 17 17 17 16 16 17 17 17 18 18 18 18 18 18 18 18 18 18 17 17 17 17 16 16 16 16 16 15 15 15 15 15 15 14 14 14 14
18 18 20 21 20 19 19 17 16 17 16 16 17 17 17 18 18 19 18 18 18 18 18 18 18 17 17 17 17 16 16 16 16 15 15 15 15 15 14 14 14 14 14 14
17 18 20 21 20 20 19 17 17 16 16 16 16 17 18 18 17 17 17 17 17 17 17 18 17 17 17 17 16 16 16 16 15 15 15 15 15 14 14 14 14 14 14 14
18 17 18 20 20 20 19 18 15 16 16 16 16 16 16 17 17 17 16 16 17 17 17 17 17 17 17 17 16 16 16 16 15 15 15 15 14 14 14 14 14 14 13 13
17 17 17 18 18 18 18 18 16 15 15 15 15 16 17 17 17 16 16 17 17 17 17 17 17 17 17 17 16 16 16 16 15 15 15 14 14 14 14 14 14 13 13 13
16 15 15 16 17 18 18 17 16 16 15 15 14 15 17 16 17 16 16 16 17 17 17 17 17 17 16 16 16 16 16 15 15 15 15 14 14 14 14 14 13 13 13 13
16 15 15 15 16 17 17 17 17 15 14 14 14 15 16 16 16 16 16 16 16 16 16 16 16 16 16 16 16 16 15 15 15 15 14 14 14 14 14 13 13 13 13 13
16 14 14 15 15 16 16 17 17 15 14 14 14 15 16 15 15 15 16 16 16 16 16 16 15 15 15 15 15 15 15 15 15 14 14 14 14 14 13 13 13 13 13 12
15 14 15 15 16 16 16 17 17 16 15 15 15 15 15 15 15 15 16 16 15 15 15 15 15 15 15 15 15 15 15 14 14 14 14 14 14 13 13 13 13 12 12 12
13 14 15 15 16 16 16 16 16 16 16 16 15 15 15 15 15 15 15 15 15 15 15 15 15 15 15 14 14 14 14 14 14 14 14 13 13 13 13 13 12 12 12 12
13 13 13 13 14 15 15 16 16 16 16 16 15 15 15 14 14 15 15 15 15 15 15 15 14 14 14 14 14 14 14 14 13 13 13 13 13 13 13 12 12 12 12 12
12 12 12 12 14 14 15 15 16 16 15 15 15 15 15 15 15 15 15 15 15 15 15 14 14 14 14 14 14 14 14 13 13 13 13 13 13 13 12 12 12 12 11 11
12 12 12 11 12 13 15 16 16 15 15 15 14 14 14 15 14 14 15 15 15 15 15 14 14 14 14 14 13 13 13 13 13 13 13 13 12 12 12 12 12 11 11 11
12 12 12 11 12 13 14 15 16 15 14 14 14 14 13 13 12 12 14 14 14 14 14 14 14 13 13 13 13 13 13 13 13 13 12 12 12 12 12 11 11 11 11 11
12 11 11 11 11 12 13 15 15 14 13 14 14 14 14 13 13 14 14 14 14 14 14 13 13 13 13 13 13 13 13 12 12 12 12 12 12 11 11 11 11 11 10 10
11 11 11 10 11 12 13 14 13 13 14 14 14 14 14 14 14 13 13 13 13 13 13 13 13 13 12 12 12 12 12 12 12 12 11 11 11 11 11 10 10 10 10 10
11 11 10 11 11 12 13 14 14 14 14 14 14 14 14 14 13 13 13 13 13 13 13 13 12 12 12 12 12 12 12 11 11 11 11 11 11 10 10 10 10 10 9 9
10 11 10 10 11 12 13 14 14 14 14 14 14 14 14 13 13 12 12 12 12 12 12 12 12 12 11 11 11 11 11 11 11 11 11 10 10 10 10 10 10 9 9 9
10 10 10 10 10 12 13 13 13 13 13 13 13 13 13 13 12 12 12 12 12 12 12 11 11 11 11 11 11 11 11 11 11 10 10 10 10 10 9 9 9 9 9 9
9 10 9 10 11 10 12 13 13 13 13 13 12 12 12 12 12 12 12 12 11 11 11 11 11 11 11 11 10 10 10 10 10 10 10 10 9 9 9 9 9 9 9 8
Wind_Speed
1 3 4 7 8 6 5 4 4 5 4 4 5 6 7 7 6 7 8 8 7 7 5 6 6 7 6 6 5 5 5 4 4 3 3 2 2 1 2 2 3 5 5 5
3 4 9 7 5 4 4 3 3 2 4 5 5 6 6 7 9 10 10 10 8 6 4 5 6 6 6 6 5 5 5 5 5 4 3 3 3 2 1 1 2 3 4 4
6 6 6 5 5 5 5 5 5 4 2 2 3 3 5 4 5 6 8 9 9 9 8 7 7 6 6 6 6 6 6 5 5 5 4 3 3 3 2 1 1 1 3 3
4 5 3 3 4 5 5 6 7 5 3 4 4 3 6 4 3 5 7 7 8 8 8 7 7 6 6 6 6 6 5 5 5 6 6 6 4 3 3 2 1 1 2 3
4 4 4 4 6 5 6 4 4 4 4 2 2 3 6 2 4 7 8 9 9 9 10 9 8 7 6 5 5 5 5 5 5 5 7 6 4 3 2 2 2 1 1 2
5 3 4 6 5 5 2 2 3 3 3 2 4 4 6 5 8 8 9 10 10 10 9 9 8 6 5 4 4 4 5 4 4 5 5 6 6 5 4 3 2 1 1 1
4 4 3 2 1 1 3 5 2 2 2 5 3 3 6 5 6 9 11 11 10 9 9 9 8 7 6 6 5 5 5 4 4 5 5 6 6 6 6 4 3 2 1 1
1 5 4 1 4 4 3 8 6 5 4 4 2 3 5 4 2 4 6 8 8 8 9 9 9 8 8 8 7 6 6 5 5 5 6 6 6 5 4 4 4 3 2 2
2 5 4 3 2 5 3 4 7 6 2 1 3 3 4 2 3 3 4 5 6 7 8 8 8 8 7 8 8 7 7 5 5 6 6 6 6 5 5 4 3 2 2 2
3 3 5 4 2 1 4 5 5 4 4 3 4 3 4 3 3 2 4 6 6 6 6 6 6 7 7 7 7 7 6 6 5 5 6 5 5 6 5 4 4 3 3 2
3 2 5 3 1 3 1 2 3 4 5 5 3 5 4 7 6 5 5 6 6 6 6 6 5 6 6 6 6 6 5 5 4 4 4 5 5 5 5 5 5 4 3 3
1 4 3 5 5 3 3 4 5 4 3 4 4 6 5 4 4 4 4 4 5 5 4 4 4 4 4 5 5 5 5 5 5 5 4 4 4 5 5 5 5 4 4 3
2 4 0 5 5 3 1 1 3 4 3 4 4 6 3 1 1 2 3 4 4 5 4 4 3 4 4 4 4 4 4 5 4 4 4 3 4 5 5 5 5 4 4 3
2 3 5 7 6 3 3 4 1 4 3 4 6 6 4 2 2 2 3 4 4 5 5 4 3 3 3 4 4 3 3 3 3 3 4 4 5 5 5 5 5 5 5 4
3 2 3 4 4 3 4 5 3 3 6 7 7 7 7 6 6 5 4 4 4 4 5 5 4 4 3 3 3 3 3 3 4 4 4 4 4 4 4 4 4 3 3 4
3 2 1 3 3 3 5 5 5 4 3 4 4 5 5 3 2 3 3 5 4 4 5 5 4 4 4 4 4 3 3 3 4 4 4 4 4 4 4 4 4 4 3 3
1 2 1 3 4 4 5 5 5 3 2 4 4 5 3 3 5 6 6 4 4 4 4 4 4 5 5 5 5 5 4 4 4 4 4 4 5 5 4 4 4 4 4 3
5 4 3 2 1 5 6 3 3 3 2 2 3 4 5 5 5 4 4 4 4 3 4 4 4 4 4 4 3 4 3 4 4 4 3 4 5 5 4 4 4 4 4 4
6 6 3 3 3 6 5 3 1 3 3 3 2 2 1 2 3 1 1 2 4 3 4 3 3 3 3 3 3 4 3 3 4 4 4 4 5 5 5 5 5 4 3 3
3 4 4 3 4 6 5 4 2 3 3 4 1 3 3 4 2 3 3 1 2 1 1 2 1 1 2 2 3 4 3 4 4 4 5 4 4 5 6 6 5 3 3 4
2 1 3 4 5 6 5 5 2 3 5 3 2 4 4 2 4 4 2 1 2 1 1 2 2 2 2 2 3 3 3 4 5 4 3 3 4 4 5 5 4 4 3 3
4 3 4 4 4 6 4 1 3 4 2 1 2 3 3 2 1 1 1 2 2 1 1 2 2 1 1 1 3 2 3 4 3 3 3 3 3 3 3 3 3 3 4 3
4 5 4 5 5 4 2 3 3 3 2 2 2 2 4 3 1 1 1 2 2 2 2 2 2 1 1 1 3 3 3 2 3 3 3 3 3 2 3 4 3 3 3 3
4 1 2 2 3 3 2 1 0 2 2 2 2 2 2 2 2 1 2 2 1 1 1 1 2 1 1 2 2 3 2 3 4 4 3 3 3 3 3 3 3 4 4 4
4 1 0 2 3 2 3 1 0 1 1 2 1 1 2 2 2 2 2 2 2 2 2 2 3 3 3 2 2 2 2 3 4 4 4 3 4 4 3 3 3 4 5 6
5 5 4 5 5 3 4 3 1 1 1 1 1 1 1 1 1 1 2 1 1 1 1 1 2 2 3 2 2 2 2 3 4 3 3 3 3 3 3 3 1 2 3 4
Wind_Direction
125 107 205 219 200 192 186 187 213 227 212 179 206 221 224 207 191 185 180 181 185 189 179 162 157 157 149 143 146 157 150 149 136 129 126 122 119 118 96 96 103 102 106 113
52 237 228 216 212 207 211 208 227 251 209 187 205 234 233 205 200 192 184 183 185 180 169 166 158 156 159 160 156 154 157 158 156 156 151 148 143 142 140 106 95 107 112 118
191 234 221 203 220 217 227 202 201 204 243 201 167 282 262 242 207 189 184 180 176 172 175 176 165 163 160 164 167 167 165 164 160 147 125 104 78 61 54 70 89 121 122 123
227 240 214 204 222 198 233 221 195 182 163 236 190 242 272 232 195 194 189 183 183 179 173 170 160 159 165 176 170 167 170 168 163 148 141 143 148 160 195 183 170 140 115 125
243 220 205 218 226 205 228 217 195 191 176 239 243 189 275 226 206 214 199 188 187 183 176 174 174 173 170 170 166 163 164 168 167 158 155 155 155 171 167 144 130 120 102 121
237 245 198 216 224 206 207 59 45 58 95 247 235 189 263 228 206 204 201 194 190 183 179 177 178 168 159 155 155 160 158 171 167 161 163 165 162 158 147 155 162 159 134 126
303 298 274 211 225 296 100 98 47 352 353 248 243 191 245 244 211 197 197 195 191 180 178 176 174 171 168 166 170 167 166 175 172 167 171 172 168 164 165 172 176 170 160 178
222 283 271 222 181 203 184 146 161 197 219 267 305 222 255 269 221 180 184 184 181 175 179 181 184 184 181 180 179 172 176 184 180 175 178 177 171 167 173 177 173 177 186 194
184 259 287 265 207 155 157 174 175 154 189 244 272 276 307 19 61 101 129 143 163 174 177 181 184 186 183 182 183 181 180 182 185 184 181 180 177 174 178 178 170 168 172 183
161 260 296 298 30 40 158 154 106 131 174 232 271 252 233 219 195 163 150 160 172 176 177 180 186 188 186 184 183 180 178 182 185 182 182 181 183 181 176 165 162 165 175 168
128 177 300 346 214 230 91 113 124 144 166 169 231 264 232 198 185 180 190 184 181 183 183 182 184 188 183 179 180 181 181 181 181 179 179 176 181 179 169 170 175 172 168 155
113 140 248 268 269 235 176 178 148 162 225 178 183 259 283 191 174 169 180 174 170 171 167 161 164 170 176 178 182 183 184 184 189 184 178 179 173 164 166 174 179 169 169 168
108 122 72 329 332 360 12 197 163 151 145 166 184 256 313 65 111 143 155 147 148 147 135 129 134 156 170 174 179 188 187 189 187 175 172 170 168 163 173 178 177 172 171 168
105 125 173 206 226 234 278 285 229 146 178 212 215 236 281 272 217 190 167 164 156 157 155 153 162 176 177 173 173 175 183 185 177 169 170 169 176 176 177 175 173 175 173 167
89 142 206 236 243 228 249 263 260 219 201 204 225 217 235 222 210 204 186 167 158 167 169 173 177 180 177 177 180 180 180 172 168 165 171 181 178 174 163 159 163 162 161 167
73 161 207 288 289 291 277 261 242 238 224 219 212 237 241 209 175 181 175 168 175 189 192 191 186 181 186 187 182 178 180 180 166 172 184 180 170 167 164 163 155 146 149 155
160 156 166 261 293 331 278 253 225 219 211 185 211 237 198 166 187 194 185 181 192 199 197 194 199 202 203 198 186 180 188 183 173 180 188 182 173 170 174 167 161 165 168 162
175 161 164 212 350 236 246 268 201 196 244 212 206 214 195 191 188 186 175 182 194 197 197 204 206 214 215 199 188 180 175 176 183 182 182 186 179 177 170 165 178 186 180 178
177 164 159 164 211 263 286 297 201 197 271 284 201 177 164 118 85 356 260 194 184 190 199 207 213 209 204 201 188 167 169 174 178 186 190 191 184 179 175 180 190 194 183 188
123 130 147 163 194 233 247 289 306 133 254 306 158 153 146 94 101 259 273 221 156 161 173 185 196 162 180 214 170 155 170 172 190 197 198 193 182 179 185 193 198 195 189 198
93 125 168 189 217 254 263 292 44 169 241 279 168 157 145 163 208 228 232 190 170 149 164 153 143 162 199 200 158 167 183 205 211 195 183 181 186 188 187 188 193 188 189 194
182 183 195 175 204 250 286 64 171 217 237 200 165 153 132 147 175 178 179 178 162 147 165 152 142 172 200 165 150 177 212 221 193 168 167 178 186 191 179 179 191 189 187 192
206 199 191 191 214 254 268 202 217 183 172 201 180 176 142 140 171 189 206 196 188 192 191 174 153 165 227 186 168 195 226 193 161 155 172 185 193 196 179 175 184 188 188 198
286 247 161 242 271 277 285 277 154 153 166 181 172 155 145 157 183 211 199 202 206 225 204 180 156 173 248 242 210 209 209 172 160 173 189 194 191 194 190 188 186 189 196 204
245 303 230 248 265 303 311 303 224 96 108 99 113 141 156 156 189 198 181 189 202 228 221 187 190 206 237 246 247 223 183 166 175 190 199 201 197 190 193 198 203 203 212 205
218 201 202 231 234 211 253 262 236 145 151 142 124 21 5 158 203 212 198 207 203 208 207 197 211 223 243 244 252 242 201 180 184 200 210 209 203 195 187 187 230 262 236 241
Height
1491 1497 1501 1498 1497 1498 1500 1504 1507 1504 1498 1502 1505 1506 1503 1502 1503 1504 1506 1508 1509 1511 1513 1514 1516 1517 1519 1520 1521 1522 1523 1524 1525 1526 1526 1527 1527 1527 1527 1527 1527 1527 1527 1527
1496 1499 1492 1491 1492 1494 1497 1503 1505 1501 1497 1501 1505 1505 1501 1500 1501 1501 1503 1505 1507 1509 1511 1512 1514 1516 1517 1518 1519 1520 1521 1523 1524 1524 1525 1526 1526 1527 1527 1527 1527 1527 1527 1527
1496 1493 1487 1490 1493 1496 1497 1500 1501 1502 1499 1499 1504 1508 1503 1500 1499 1500 1501 1502 1504 1506 1508 1510 1511 1513 1515 1516 1517 1519 1520 1521 1522 1523 1524 1525 1526 1526 1526 1526 1526 1526 1526 1526
1491 1487 1486 1489 1491 1493 1499 1491 1493 1497 1505 1510 1506 1520 1506 1500 1499 1499 1499 1501 1502 1504 1505 1507 1509 1511 1512 1514 1515 1517 1518 1519 1520 1521 1522 1523 1523 1524 1524 1525 1525 1525 1526 1526
1490 1485 1487 1489 1488 1488 1491 1486 1490 1494 1502 1509 1507 1516 1511 1500 1501 1498 1497 1498 1499 1501 1503 1505 1507 1509 1510 1512 1514 1515 1516 1517 1518 1519 1520 1521 1522 1523 1523 1524 1524 1524 1524 1524
1485 1482 1483 1484 1482 1483 1484 1489 1493 1500 1507 1518 1509 1515 1513 1502 1496 1493 1494 1495 1496 1498 1501 1503 1505 1507 1509 1511 1512 1513 1514 1515 1516 1517 1518 1519 1520 1521 1521 1522 1522 1522 1522 1523
1489 1484 1480 1480 1484 1484 1487 1502 1517 1519 1525 1521 1506 1510 1507 1491 1487 1487 1488 1491 1493 1496 1498 1501 1503 1505 1507 1508 1510 1511 1512 1513 1514 1515 1516 1517 1518 1519 1519 1520 1520 1520 1521 1521
1499 1498 1483 1480 1483 1487 1488 1498 1517 1525 1526 1520 1507 1509 1500 1487 1484 1484 1486 1488 1491 1493 1496 1498 1500 1502 1504 1505 1507 1508 1509 1510 1512 1512 1514 1515 1516 1516 1517 1518 1518 1518 1519 1519
1498 1496 1482 1479 1478 1481 1489 1495 1496 1510 1513 1519 1513 1504 1494 1486 1486 1486 1486 1488 1490 1492 1494 1496 1498 1500 1501 1503 1504 1506 1507 1508 1509 1510 1511 1512 1513 1514 1514 1515 1516 1516 1517 1517
1489 1495 1486 1480 1478 1479 1482 1488 1501 1509 1519 1524 1514 1508 1503 1492 1490 1488 1487 1488 1489 1491 1493 1494 1496 1498 1499 1500 1502 1504 1505 1505 1506 1507 1508 1509 1510 1511 1512 1513 1513 1514 1515 1515
1486 1496 1493 1486 1486 1488 1487 1490 1495 1504 1508 1519 1522 1513 1488 1487 1486 1487 1486 1487 1488 1490 1491 1492 1493 1495 1497 1498 1500 1501 1502 1503 1504 1505 1506 1507 1507 1508 1509 1510 1511 1511 1512 1512
1487 1495 1500 1492 1484 1481 1483 1487 1494 1506 1508 1510 1516 1510 1483 1483 1483 1484 1485 1486 1488 1489 1490 1491 1492 1493 1495 1496 1497 1498 1499 1500 1501 1502 1503 1504 1505 1505 1506 1507 1508 1509 1510 1510
1487 1495 1504 1501 1495 1487 1486 1485 1487 1495 1503 1509 1514 1506 1484 1483 1483 1484 1485 1485 1486 1487 1489 1489 1490 1491 1492 1494 1495 1496 1497 1498 1499 1500 1501 1501 1502 1502 1503 1504 1505 1506 1507 1508
1484 1494 1500 1504 1498 1492 1490 1486 1485 1492 1503 1506 1503 1497 1488 1485 1484 1484 1484 1485 1485 1486 1487 1488 1489 1490 1491 1492 1493 1494 1495 1497 1497 1498 1498 1498 1499 1499 1500 1502 1503 1504 1504 1505
1485 1493 1493 1491 1487 1486 1486 1485 1484 1488 1491 1497 1493 1490 1486 1483 1482 1482 1483 1484 1484 1485 1486 1486 1487 1488 1489 1490 1491 1492 1493 1494 1495 1495 1496 1496 1497 1497 1498 1499 1500 1501 1502 1502
1487 1491 1491 1490 1485 1484 1485 1483 1482 1482 1483 1485 1486 1486 1479 1479 1480 1481 1482 1482 1483 1484 1484 1485 1485 1486 1487 1488 1489 1490 1491 1492 1493 1493 1493 1494 1495 1495 1496 1496 1497 1498 1499 1500
1489 1492 1495 1498 1489 1486 1489 1481 1479 1480 1478 1480 1485 1483 1478 1479 1479 1479 1480 1480 1481 1481 1482 1483 1483 1484 1484 1485 1486 1487 1488 1489 1490 1491 1491 1492 1493 1493 1493 1494 1495 1495 1496 1497
1488 1491 1497 1498 1495 1499 1486 1475 1474 1477 1477 1476 1476 1476 1476 1475 1476 1477 1478 1478 1479 1480 1480 1481 1481 1482 1483 1483 1484 1485 1486 1487 1487 1488 1489 1489 1490 1490 1491 1491 1492 1493 1493 1494
1480 1486 1494 1499 1499 1493 1481 1474 1474 1477 1478 1475 1474 1474 1474 1474 1475 1477 1477 1477 1477 1478 1478 1479 1479 1480 1480 1481 1482 1483 1483 1484 1484 1485 1486 1486 1487 1488 1488 1489 1489 1490 1490 1491
1479 1482 1491 1497 1497 1496 1483 1473 1470 1474 1480 1474 1472 1472 1474 1473 1478 1477 1475 1475 1475 1476 1476 1477 1477 1478 1478 1478 1479 1480 1480 1481 1481 1482 1483 1483 1484 1485 1485 1486 1486 1487 1488 1488
1484 1487 1491 1494 1495 1487 1476 1471 1471 1482 1480 1473 1471 1471 1472 1472 1474 1474 1473 1473 1473 1474 1474 1475 1475 1475 1475 1476 1476 1477 1477 1477 1478 1479 1480 1480 1481 1481 1482 1482 1483 1484 1484 1485
1485 1488 1490 1491 1493 1489 1472 1471 1474 1475 1471 1471 1470 1470 1470 1470 1471 1471 1471 1471 1471 1471 1472 1472 1473 1473 1473 1474 1473 1474 1474 1475 1476 1476 1476 1477 1477 1478 1479 1479 1480 1480 1481 1481
1482 1481 1482 1483 1483 1474 1471 1470 1470 1470 1470 1469 1469 1469 1469 1469 1469 1469 1469 1469 1470 1470 1470 1470 1470 1470 1470 1470 1471 1471 1472 1472 1472 1473 1473 1473 1474 1475 1475 1476 1476 1477 1477 1478
1479 1476 1477 1478 1474 1471 1470 1469 1469 1468 1468 1468 1468 1468 1468 1467 1467 1467 1467 1467 1467 1468 1468 1468 1468 1468 1468 1468 1468 1468 1469 1469 1469 1470 1470 1470 1471 1471 1472 1473 1473 1473 1473 1474
1478 1476 1477 1476 1473 1471 1470 1468 1468 1467 1467 1467 1467 1467 1467 1466 1466 1465 1465 1465 1465 1465 1465 1466 1466 1465 1465 1465 1465 1465 1466 1466 1466 1466 1467 1467 1467 1468 1468 1469 1469 1470 1470 1470
1473 1474 1475 1474 1470 1470 1469 1468 1467 1467 1467 1466 1466 1465 1465 1465 1464 1464 1463 1463 1463 1463 1463 1463 1463 1463 1463 1462 1462 1462 1462 1463 1463 1463 1463 1464 1464 1464 1465 1465 1466 1466 1467 1467